Regional Weather Roundup
Issued by NWS Northern Indiana

Home | Current Version | Previous Version | Text Only | Print | Product List | Glossary On
Versions: 1 2 3 4 5 6 7 8 9 10 11 12 13 14 15 16 17 18 19 20 21 22 23 24 25 26 27 28 29 30 31 32 33 34 35 36 37 38 39 40 41 42 43 44 45 46 47 48 49 50
000
ASUS43 KIWX 241610
RWRIWX

KIWX WEATHER ROUNDUP
NATIONAL WEATHER SERVICE NORTHERN INDIANA
1200 PM EDT FRI OCT 24 2014

NOTE: "FAIR" INDICATES FEW OR NO CLOUDS BELOW 12,000 FEET WITH NO
SIGNIFICANT WEATHER AND/OR OBSTRUCTIONS TO VISIBILITY.

* THESE STATIONS ARE NOT UNDER NWS QUALITY CONTROL. THEY ALSO MAY NOT
  REPORT WEATHER SUCH AS PRECIPITATION OR FOG.

INZ001>027-241700-
NORTHERN INDIANA

CITY           SKY/WX    TMP DP  RH WIND       PRES   REMARKS
GARY*          PTSUNNY   59  48  67 CALM      30.07S
VALPARAISO     MOSUNNY   57  47  69 SW5       30.07F
LAPORTE*       MOSUNNY   58  50  72 SW5       30.07F
KNOX*          CLOUDY    55  47  74 SW5       30.07S
SOUTH BEND     CLOUDY    56  47  71 SW3       30.08F
ELKHART*       CLOUDY    55  46  71 S3        30.07F
GOSHEN         CLOUDY    55  48  77 SW6       30.08S
MONTICELLO*    CLOUDY    57  50  76 CALM      30.07F HAZE
LOGANSPORT*    PTSUNNY   55  50  82 SW6       30.10F
WARSAW*        CLOUDY    54  50  87 W7        30.09S
ANGOLA*        CLOUDY    54  46  76 W3        30.07F
FORT WAYNE     PTSUNNY   54  46  74 SW5       30.10F
PERU/GRISSOM   MOSUNNY   56  56 100 SW7       30.09S

$$
INZ028>050-241700-
CENTRAL INDIANA

CITY           SKY/WX    TMP DP  RH WIND       PRES   REMARKS
LAFAYETTE      PTSUNNY   58  49  72 SW5       30.09F
KOKOMO*        MOSUNNY   59  48  67 S7        30.09F
MUNCIE*        CLOUDY    59  43  55 SW8       30.09F
INDIANAPOLIS   PTSUNNY   54  45  71 SW9       30.10F

$$
MIZ043>046-050>051-056>058-064>065-071>073-077>080-241700-
SOUTHWEST LOWER MICHIGAN

CITY           SKY/WX    TMP DP  RH WIND       PRES   REMARKS
BATTLE CREEK   CLOUDY    54  45  71 S3        30.07F
BENTON HARBOR  CLOUDY    56  49  77 SW8       30.06F
COLDWATER*     CLOUDY    54  47  75 CALM      30.07F
HILLSDALE*     CLOUDY    54  46  76 W5        30.07S
HOLLAND        CLOUDY    58  51  78 W6        30.06S
GRAND RAPIDS   PTSUNNY   58  49  72 W8        30.05S
KALAMAZOO      CLOUDY    55  46  71 SW3       30.07S
STURGIS*       CLOUDY    52  46  82 SW5       30.07F
THREE RIVERS*  CLOUDY    55  47  73 SW5       30.07F

$$
OHZ001>008-015>018-024>025-241700-
NORTHWEST OHIO

CITY           SKY/WX    TMP DP  RH WIND       PRES   REMARKS
WAUSEON*       CLOUDY    57  45  62 SW7       30.08F
DEFIANCE       CLOUDY    53  44  71 S5        30.09F
FINDLAY        SUNNY     59  42  53 W8        30.09S
TOLEDO EXPRESS CLOUDY    56  42  59 SW9       30.09S
TOLEDO METCALF SUNNY     57  42  57 SW8       30.10F
LIMA           SUNNY     58  42  55 NW5       30.10S

$$
AND FOR LAKE MICHIGAN COASTAL AND OPEN LAKE BUOY OBSERVATIONS

STATION/POSITION TEMP    WIND        PRES    VSBY  WAVE
                 AIR SEA DIR/SP/G                  HT/PER
                 (F)     (DEG/KT/KT) (MB)    (MI)  (FT/S)
CALUMET HARBOR    58     190/  3/  5 1016.8S
MICHIGAN CITY     55     240/  3/  4   N/A
SAINT JOSEPH      56                 1018.3F
SOUTH LAKE BUOY   52 54  250/  8/  8 1017.8F         1

$$
&&



USA.gov is the U.S. government's official web portal to all federal, state and local government web resources and services.